This is the latest recevied weather packets stored in our database for station/object K5GTX. If no packets are shown the sender has not sent any weather packets the latest 10 day(s).
| Time | Temp. | Humidity | Pressure | Rain* | Wind** | Luminosity | Snow |
|---|---|---|---|---|---|---|---|
| 1777769570 | 23.33° C | 99% | 1025 hPa | 0 mm | - | 10 W/m² | - |
| 1777769265 | 23.33° C | 99% | 1024.9 hPa | 0 mm | - | 15 W/m² | - |
| 1777768964 | 23.89° C | 99% | 1024.7 hPa | 0 mm | - | 18 W/m² | - |
| 1777768660 | 23.89° C | 99% | 1024.9 hPa | 0 mm | - | 23 W/m² | - |
| 1777768358 | 24.44° C | 99% | 1024.8 hPa | 0 mm | - | 28 W/m² | - |
| 1777768054 | 24.44° C | 99% | 1024.8 hPa | 0 mm | - | 33 W/m² | - |
| 1777767751 | 24.44° C | 99% | 1024.8 hPa | 0 mm | - | 37 W/m² | - |
| 1777767447 | 24.44° C | 99% | 1024.8 hPa | 0 mm | - | 44 W/m² | - |
| 1777767144 | 24.44° C | 99% | 1024.9 hPa | 0 mm | - | 65 W/m² | - |
| 1777766842 | 25° C | 99% | 1024.9 hPa | 0 mm | - | 77 W/m² | - |
| 1777766539 | 25° C | 99% | 1025 hPa | 0 mm | - | 86 W/m² | - |
| 1777766236 | 25° C | 99% | 1024.8 hPa | 0 mm | - | 106 W/m² | - |
| 1777765934 | 25.56° C | 99% | 1024.8 hPa | 0 mm | - | 119 W/m² | - |
| 1777765630 | 26.11° C | 99% | 1024.5 hPa | 0 mm | - | 122 W/m² | - |
| 1777765327 | 25° C | 99% | 1024.7 hPa | 0 mm | - | 147 W/m² | - |
| 1777765023 | 25° C | 99% | 1024.7 hPa | 0 mm | - | 135 W/m² | - |
| 1777764720 | 25.56° C | 99% | 1024.8 hPa | 0 mm | - | 159 W/m² | - |
| 1777764415 | 25.56° C | 99% | 1025.1 hPa | 0 mm | - | 184 W/m² | - |
| 1777764113 | 25° C | 99% | 1024.9 hPa | 0 mm | - | 192 W/m² | - |
| 1777763809 | 25° C | 99% | 1025 hPa | 0 mm | - | 207 W/m² | - |
| 1777763507 | 24.44° C | 99% | 1025 hPa | 0 mm | - | 213 W/m² | - |
| 1777763206 | 23.89° C | 99% | 1025.1 hPa | 0 mm | - | 69 W/m² | - |
| 1777762904 | 25° C | 99% | 1025.5 hPa | 0 mm | - | 264 W/m² | - |
| 1777762599 | 25.56° C | 99% | 1025 hPa | 0 mm | - | 269 W/m² | - |
| 1777762297 | 25° C | 99% | 1025 hPa | 0 mm | - | 300 W/m² | - |
* Rain latest hour (hover to see other rain measurements)
** Current wind speed in m/s (hover to see current wind gust speed)